Preview of NWS' New Version of Forecast
This preview is not operational and should not be used for support decisions.

Regional Weather Roundup (RWR)

Issued by National Weather Service (NWS)

                            
000
ASUS45 KBOU 181910
RWRCO 

WEATHER ROUNDUP FOR COLORADO
NATIONAL WEATHER SERVICE DENVER/BOULDER CO
100 PM MDT THU APR 18 2019

NOTE: "FAIR" INDICATES FEW OR NO CLOUDS BELOW 12000 FEET WITH NO
SIGNIFICANT WEATHER AND/OR OBSTRUCTIONS TO VISIBILITY.

COZ001>005-013-030-031-182000-
...NORTHWEST COLORADO...
  
CITY           SKY/WX    TMP DP  RH WIND       PRES   REMARKS
CRAIG          PTSUNNY   57  30  35 W12G25    30.32F                  
HAYDEN         PTSUNNY   52  27  38 W10G23    30.33F                  
MEEKER         FAIR      57  25  29 W12       30.31F                  
RANGELY        FAIR      58  31  35 NE5       30.31F                  
RABBIT EARS PA CLOUDY   N/A N/A N/A W14G23    30.37S                  
STEAMBOAT SPGS PTSUNNY   47  27  45 W10G20    30.32F                  
WALDEN         FAIR      46  21  36 N18G26    30.32S                  
$$

COZ006>008-011-182000-
...WEST CENTRAL VALLEYS...
  
CITY           SKY/WX    TMP DP  RH WIND       PRES   REMARKS
GRAND JUNCTION FAIR      63  29  27 W8        30.28F                  
MONTROSE       FAIR      58  22  24 VRB3G16   30.33F                  
EAGLE          FAIR      56  21  25 W3        30.30F                  
RIFLE          FAIR      61  27  27 NW12G21   30.28F                  
DELTA          FAIR      64  26  24 W3        30.30F                  
NUCLA          FAIR      61  21  21 CALM      30.32F                  
$$

COZ017>023-064>068-182000-
...SOUTHWEST COLORADO...
  
CITY           SKY/WX    TMP DP  RH WIND       PRES   REMARKS
DURANGO        FAIR      65  19  17 SW14      30.21F                  
CORTEZ         FAIR      66  24  20 N14G23    30.26S                  
PAGOSA SPRINGS FAIR      61  11  14 NW17G30   30.25F                  
TELLURIDE      FAIR      46  18  31 W10G17    30.39S                  
WOLF CREEK PAS FAIR      34  10  37 NW14G21   30.45F WCI  24          
$$

COZ009-010-012-014-032>034-037-058>063-182000-
...CENTRAL COLORADO...
  
CITY           SKY/WX    TMP DP  RH WIND       PRES   REMARKS
ASPEN          PTSUNNY   50  22  33 N9G25     30.32S                  
BUENA VISTA    FAIR      55  11  17 NW23G46   30.23F                  
COPPER MTN     CLOUDY    28  23  80 W26G33    30.36F WCI  13          
BERTHOUD PASS  CLOUDY    19   9  63 NW49G63   30.26R WCI  -3          
COTTONWOOD PAS FAIR      46   5  18 NW14G26   30.27F                  
GUNNISON       FAIR      52  19  27 NW15      30.31F                  
GRANBY         MOCLDY    48  22  36 W15G24    30.30R                  
KREMMLING      FAIR      50  23  34 NW17G24   30.32S                  
LEADVILLE      CLOUDY    39  17  41 N8G20     30.33F                  
MONARCH PASS   FAIR      34  12  40 N23G37    30.47F WCI  22          
SALIDA         FAIR      60  12  15 N21G31    30.29F                  
SUNLIGHT       FAIR      34  21  60 CALM      30.46R                  
WILKERSON PASS FAIR      34  16  47 N15G35    30.34R WCI  24          
$$

COZ069>075-182000-
...SAN LUIS VALLEY/SANGRE DE CRISTO MOUNTAINS...
  
CITY           SKY/WX    TMP DP  RH WIND       PRES   REMARKS
ALAMOSA        FAIR      59   9  13 N21G32    30.22F                  
DEL NORTE      FAIR      56  16  20 N15G25    30.26F                  
LA VETA PASS   NOT AVBL                                               
SAGUACHE       FAIR      55  19  24 NW24G32   30.24F                  
$$

COZ035-036-038>040-182000-
...NORTHERN COLORADO FRONT RANGE...
  
CITY           SKY/WX    TMP DP  RH WIND       PRES   REMARKS
DENVER INTL AP PTSUNNY   53  32  44 NW12      30.20F                  
AURORA         PTSUNNY   50  32  50 N8        30.21F                  
FRONT RANGE AP PTSUNNY   54  34  47 NW8       30.21F                  
ERIE MUNI ARPT FAIR      57  26  30 CALM      30.25F                  
BOULDER MUN AP FAIR      54  30  40 SE5       30.20F                  
CENTENNIAL     PTSUNNY   47  32  56 NE10G18   30.22F                  
BROOMFIELD     MOSUNNY   54  28  37 NE9       30.22F                  
FORT COLLINS   FAIR      60  25  26 N36G44    30.15F                  
LONGMONT       FAIR      61  28  28 SW7       30.20F                  
$$

COZ041-046-047-076>085-087-088-182000-
...PIKES PEAK/PALMER DIVIDE AND SOUTHERN FOOTHILLS...
  
CITY           SKY/WX    TMP DP  RH WIND       PRES   REMARKS
COLO. SPRINGS  PTSUNNY   51  30  44 N13G23    30.19F                  
A. F. ACADEMY  FAIR      52  30  43 N18G28    30.16F                  
SCHRIEVER AFB  NOT AVBL                                               
CHEYENNE MTN   PTSUNNY   46  32  58 CALM      30.15F                  
ELLICOTT         N/A    N/A N/A N/A N23G32    30.19F                  
FALCON         FAIR      47  29  49 N15G29    30.22F                  
FORT CARSON    FAIR      54  33  44 NE12      30.18F                  
LIMON          PTSUNNY   48  33  56 N22G35    30.19F                  
MONUMENT HILL  CLOUDY    41  32  70 N9G25     30.25S                  
CANON CITY     NOT AVBL                                               
WALSENBURG     NOT AVBL                                               
TRINIDAD       FAIR      63  29  27 NE14G25   30.14F                  
$$

COZ042>045-048>051-090-091-182000-
...NORTHEAST COLORADO...
  
CITY           SKY/WX    TMP DP  RH WIND       PRES   REMARKS
GREELEY ARPT   FAIR      59  22  24 N33G45    30.16F                  
AKRON          PTSUNNY   52  26  36 N45G60    30.16S                  
BURLINGTON     FAIR      55  28  35 NW28G44   30.11F                  
WRAY           FAIR      57  30  35 N23G37    30.12S                  
YUMA           NOT AVBL                                               
STERLING       FAIR      55  30  38 N30G41    30.14S                  
HOLYOKE        FAIR      59  37  44 N24G31    30.10F                  
FORT MORGAN      N/A     56  18  22 N31G39    30.18F                  
$$

COZ086-089-092>099-182000-
...SOUTHEAST COLORADO...
  
CITY           SKY/WX    TMP DP  RH WIND       PRES   REMARKS
PUEBLO         FAIR      61  35  37 E15G25    30.15F                  
LA JUNTA       CLOUDY    57  33  40 N23G31    30.19S                  
LAMAR          PTSUNNY   57  33  40 N26G33    30.14F                  
SPRINGFIELD      N/A     53  34  48 N22G38    30.15F                  
$$